Location: Unspecified
(0.0000°N, 0.0000°E)
Time: 18:52:21
(UTC+00:00)

Explorer 11/Cluster Stage 4 - Pass Details

Date: 21 November 2019
Orbit: 467 x 1259 km, 28.8° (Epoch: 05 December)

Event Time Altitude Azimuth Distance (km) Brightness Sun altitude
Rises 02:54:44 0° 299° (WNW) 4,158 - -39.7°
Reaches altitude 10° 02:57:37 10° 298° (WNW) 3,220 - -39.0°
Maximum altitude 03:05:56 82° 211° (SSW) 1,247 - -37.2°
Exits shadow 03:07:17 65° 139° (SE) 1,329 7.7 -36.9°
Drops below altitude 10° 03:13:42 10° 124° (SE) 3,024 10.3 -35.4°
Sets 03:16:21 0° 123° (ESE) 3,896 11.2 -34.8°
